Flight Track Log - Related Links

Times and Time Zones

All times are in EDT time to prevent confusion due to time zone crossing. See the CTL309 flight status page for this flight to view local times or setup timezone preferences in your user account.

Time Position Orientation Groundspeed Altitude Reporting Facility
EDT Latitude Longitude Course Direction KTS MPH feet Rate Location/Type
Mon 09:08:59 PM 39.1317 -83.4992 138° Southeast 107 123 3,600  Level Indianapolis Center
Mon 09:10:00 PM 39.1067 -83.4678 136° Southeast 120 138 4,600 1,082 Climbing Indianapolis Center
Mon 09:11:01 PM 39.0739 -83.4311 139° Southeast 129 148 5,800 976 Climbing Indianapolis Center
Mon 09:12:03 PM 39.0467 -83.4003 139° Southeast 129 148 6,600 780 Climbing Indianapolis Center
Mon 09:13:04 PM 39.0217 -83.3661 133° Southeast 132 152 7,400 738 Climbing Indianapolis Center
Mon 09:14:00 PM 38.9893 -83.2845 138° Southeast  Level Estimated
Mon 09:14:05 PM 38.9958 -83.3308 133° Southeast 134 154 8,100  Level Indianapolis Center
Mon 09:15:06 PM 38.9678 -83.2989 138° Southeast 134 154 8,700 443 Climbing Indianapolis Center
Mon 09:16:07 PM 38.9389 -83.2647 137° Southeast 139 160 9,000 146 Climbing Indianapolis Center
Mon 09:17:09 PM 38.9064 -83.2239 136° Southeast 157 181 9,000  Level Indianapolis Center
Mon 09:18:10 PM 38.8717 -83.1808 136° Southeast 169 194 9,000  Level Indianapolis Center
Mon 09:19:11 PM 38.8353 -83.1372 137° Southeast 172 198 9,000  Level Indianapolis Center
Mon 09:20:12 PM 38.8036 -83.0925 132° Southeast 169 194 9,000  Level Indianapolis Center
Mon 09:21:14 PM 38.7694 -83.0500 136° Southeast 171 197 9,000  Level Indianapolis Center
Mon 09:22:15 PM 38.7267 -83.0014 138° Southeast 171 197 9,000  Level Indianapolis Center
Mon 09:23:16 PM 38.6939 -82.9589 135° Southeast 168 193 9,000  Level Indianapolis Center
Mon 09:24:17 PM 38.6597 -82.9153 135° Southeast 172 198 9,000  Level Indianapolis Center
Mon 09:25:18 PM 38.6294 -82.8772 136° Southeast 169 194 9,000  Level Indianapolis Center
Mon 09:26:20 PM 38.5889 -82.8281 137° Southeast 172 198 9,000  Level Indianapolis Center
Mon 09:27:21 PM 38.5556 -82.7847 135° Southeast 172 198 9,000  Level Indianapolis Center
Mon 09:28:22 PM 38.5208 -82.7422 136° Southeast 172 198 9,000  Level Indianapolis Center
Mon 09:29:23 PM 38.4869 -82.6997 136° Southeast 172 198 9,000  Level Indianapolis Center
Mon 09:30:25 PM 38.4528 -82.6581 136° Southeast 169 194 9,000  Level Indianapolis Center
Mon 09:31:26 PM 38.4178 -82.6144 136° Southeast 172 198 9,000  Level Indianapolis Center
Mon 09:32:27 PM 38.3839 -82.5725 136° Southeast 171 197 9,000  Level Indianapolis Center
Mon 09:33:28 PM 38.3489 -82.5317 138° Southeast 169 194 9,000  Level Indianapolis Center
Mon 09:34:29 PM 38.3117 -82.4833 134° Southeast 172 198 9,000  Level Indianapolis Center
Mon 09:35:31 PM 38.2764 -82.4411 137° Southeast 174 200 9,000  Level Indianapolis Center
Mon 09:36:32 PM 38.2411 -82.4003 138° Southeast 172 198 9,000  Level Indianapolis Center
Mon 09:37:33 PM 38.2058 -82.3586 137° Southeast 173 199 9,000  Level Indianapolis Center
Mon 09:38:34 PM 38.1711 -82.3156 136° Southeast 173 199 9,000  Level Indianapolis Center
Mon 09:39:36 PM 38.1353 -82.2753 139° Southeast 173 199 9,000  Level Indianapolis Center
Mon 09:40:37 PM 38.0983 -82.2319 137° Southeast 170 196 9,000  Level Indianapolis Center
Mon 09:41:38 PM 38.0650 -82.1894 135° Southeast 169 194 9,000  Level Indianapolis Center
Mon 09:42:39 PM 38.0325 -82.1500 136° Southeast 175 201 9,000  Level Indianapolis Center
Mon 09:43:41 PM 37.9903 -82.0997 137° Southeast 172 198 9,000  Level Indianapolis Center
Mon 09:44:42 PM 37.9564 -82.0558 134° Southeast 174 200 9,000  Level Indianapolis Center
Mon 09:45:43 PM 37.9222 -82.0136 136° Southeast 173 199 9,000  Level Indianapolis Center
Mon 09:46:44 PM 37.8881 -81.9697 135° Southeast 174 200 9,000  Level Indianapolis Center
Mon 09:47:45 PM 37.8519 -81.9278 137° Southeast 175 201 9,000 49 Level Indianapolis Center
Mon 09:48:47 PM 37.8156 -81.8825 135° Southeast 173 199 9,100 49 Climbing Indianapolis Center
Mon 09:49:48 PM 37.7811 -81.8378 134° Southeast 175 201 9,100  Level Indianapolis Center
Mon 09:50:49 PM 37.7464 -81.7947 136° Southeast 174 200 9,100  Level Indianapolis Center
Mon 09:51:50 PM 37.7119 -81.7494 134° Southeast 178 205 9,100  Level Indianapolis Center
Mon 09:52:51 PM 37.6772 -81.7069 136° Southeast 176 203 9,100  Level Indianapolis Center
Mon 09:53:52 PM 37.6433 -81.6639 135° Southeast 173 199 9,100  Level Indianapolis Center
Mon 09:54:54 PM 37.6086 -81.6206 135° Southeast 175 201 9,100  Level Indianapolis Center

Login

Don't have an account? Register now (free) for customized features, flight alerts, and more!